Tracking 30970 objects as of 3-Jul-2025
HD Live streaming from Space Station
objects crossing your sky now

HAWK-5C

Track HAWK-5C now!
10-day predictions


NORAD ID: 52754
Int'l Code: 2022-057Y
Perigee: 457.2 km
Apogee: 464.3 km
Inclination: 97.6 °
Period: 93.7 minutes
Semi major axis: 6831 km
RCS: Unknown
Launch date: May 25, 2022
Source: United States (US)
Launch site: AIR FORCE EASTERN TEST RANGE (AFETR)
Your satellite tracking list
Your tracking list is empty




NASA's NSSDC Master Catalog

Two Line Element Set (TLE):
1 52754U 22057Y   25183.88371778  .00009843  00000-0  27004-3 0  9997
2 52754  97.6196 320.9968 0005163 239.1266 120.9470 15.37472622172444
Source of the keplerian elements: AFSPC